Location: Newark
(12.4436°N, 0.6167°W)
Time: 02:00:44
(UTC+00:00)

deb Explorer IX - Pass Details

Date: 13 December 2019
Orbit: 548 x 1101 km, 38.8° (Epoch: 25 January)

Event Time Altitude Azimuth Distance (km) Brightness Sun altitude
Rises 00:33:03 0° 279° (W) 3,906 - -76.2°
Reaches altitude 10° 00:37:08 10° 259° (W) 2,924 - -75.6°
Maximum altitude 00:41:08 16° 225° (SW) 2,475 - -74.9°
Drops below altitude 10° 00:45:00 10° 190° (S) 2,795 - -74.3°
Sets 00:48:47 0° 169° (S) 3,646 - -73.6°
